Find Starlink 4503

NORAD ID: 53528 Int'l Des: 2022-101 Owner: SPXS Country: US Constellation: starlink operational
LEOCIRCULAR

Live-Position

3D-Globus wird geladen...

Über Starlink 4503

Beschreibung wird geladen...

Nächste Überflüge

Passes for default location (London). Set your location on the main map for personalized predictions.

Höhenverlauf

Loading altitude history...

Zweizeiliger Elementsatz

1 53528U 22101B 26123.42760642 -.00000091 00000-0 12404-4 0 9990
2 53528 53.2186 188.3977 0001413 99.7390 260.3762 15.08837944204426
Epoch: 3. Mai 2026 • Age: 11 hours

Aktueller Status

Höhe 550.4 km
Geschwindigkeit 7.59 km/s
Subsatellitenpunkt -31.80°S, 21.03°W
Startdatum 19. Aug. 2022
Alter 3.7 years
Typ internet

Technische Details

Klassifizierung Payload
Masse 300.00 kg
Trockenmasse 290.00 kg
Gesamtmasse 300.00 kg
Länge 0.20 m
Durchmesser 2.80 m
Spannweite 9.00 m
Form Box + pan
Hersteller SPXS
Bus-Typ Starlink
Phasenstatus In Orbit
Besitzer/Staat SPXS/US

Most Searched